Time,TemperatureF,DewpointF,PressureIn,WindDirection,WindDirectionDegrees,WindSpeedMPH,WindSpeedGustMPH,Humidity,HourlyPrecipIn,Conditions,Clouds,dailyrainin,SoftwareType,DateUTC
2013-08-14 00:06:00,66.6,66.0,29.66,SSE,155,0.0,1.0,97,0.00,,,0.56,weatherlink.com 1.10,2013-08-14 04:06:00,
2013-08-14 00:21:00,66.5,66.0,29.65,SSE,155,0.0,0.0,97,0.00,,,0.56,weatherlink.com 1.10,2013-08-14 04:21:00,
2013-08-14 00:36:00,66.3,66.0,29.65,SSE,155,0.0,0.0,97,0.00,,,0.00,weatherlink.com 1.10,2013-08-14 04:36:00,
2013-08-14 00:51:00,65.9,65.0,29.64,SSE,155,1.0,2.0,97,0.00,,,0.00,weatherlink.com 1.10,2013-08-14 04:51:00,
2013-08-14 01:06:00,65.6,65.0,29.64,SSE,155,1.0,2.0,97,0.00,,,0.00,weatherlink.com 1.10,2013-08-14 05:06:00,
2013-08-14 01:21:00,65.5,65.0,29.64,SSE,155,0.0,1.0,97,0.00,,,0.00,weatherlink.com 1.10,2013-08-14 05:21:00,
2013-08-14 01:36:00,65.4,65.0,29.64,SSE,155,1.0,1.0,97,0.00,,,0.00,weatherlink.com 1.10,2013-08-14 05:36:00,
2013-08-14 01:51:00,65.1,64.0,29.64,SSE,155,0.0,1.0,97,0.00,,,0.00,weatherlink.com 1.10,2013-08-14 05:51:00,
2013-08-14 02:06:00,64.9,64.0,29.64,SSE,155,0.0,0.0,97,0.00,,,0.00,weatherlink.com 1.10,2013-08-14 06:06:00,
2013-08-14 02:21:00,64.7,64.0,29.64,SSE,155,1.0,2.0,97,0.00,,,0.00,weatherlink.com 1.10,2013-08-14 06:21:00,
2013-08-14 02:36:00,64.8,64.0,29.64,SSE,155,0.0,1.0,97,0.00,,,0.00,weatherlink.com 1.10,2013-08-14 06:36:00,
2013-08-14 02:51:00,64.5,64.0,29.64,SSE,155,0.0,2.0,97,0.00,,,0.00,weatherlink.com 1.10,2013-08-14 06:51:00,
2013-08-14 03:06:00,64.3,64.0,29.64,SSE,155,0.0,1.0,97,0.00,,,0.00,weatherlink.com 1.10,2013-08-14 07:06:00,
2013-08-14 03:21:00,64.2,63.0,29.65,SSE,155,0.0,0.0,97,0.00,,,0.00,weatherlink.com 1.10,2013-08-14 07:21:00,
2013-08-14 03:36:00,63.8,63.0,29.65,SSE,155,0.0,2.0,97,0.00,,,0.00,weatherlink.com 1.10,2013-08-14 07:36:00,
2013-08-14 03:51:00,63.6,63.0,29.64,SSE,155,0.0,2.0,97,0.00,,,0.00,weatherlink.com 1.10,2013-08-14 07:51:00,
2013-08-14 04:06:00,63.6,63.0,29.65,SSE,155,1.0,2.0,98,0.00,,,0.00,weatherlink.com 1.10,2013-08-14 08:06:00,
2013-08-14 04:21:00,63.8,63.0,29.64,SSE,155,2.0,2.0,98,0.00,,,0.00,weatherlink.com 1.10,2013-08-14 08:21:00,
2013-08-14 04:36:00,64.3,64.0,29.64,SSW,202,2.0,5.0,98,0.00,,,0.00,weatherlink.com 1.10,2013-08-14 08:36:00,
2013-08-14 04:51:00,64.5,63.0,29.64,SW,221,3.0,4.0,96,0.00,,,0.00,weatherlink.com 1.10,2013-08-14 08:51:00,
2013-08-14 05:06:00,64.4,63.0,29.64,SW,227,1.0,5.0,94,0.00,,,0.00,weatherlink.com 1.10,2013-08-14 09:06:00,
2013-08-14 05:21:00,64.1,62.0,29.64,WSW,237,1.0,5.0,93,0.00,,,0.00,weatherlink.com 1.10,2013-08-14 09:21:00,
2013-08-14 05:36:00,63.8,62.0,29.65,South,189,1.0,4.0,93,0.00,,,0.00,weatherlink.com 1.10,2013-08-14 09:36:00,
2013-08-14 05:51:00,63.2,60.0,29.65,WSW,245,1.0,11.0,89,0.00,,,0.00,weatherlink.com 1.10,2013-08-14 09:51:00,
2013-08-14 06:06:00,62.4,59.0,29.66,SW,215,4.0,9.0,87,0.00,,,0.00,weatherlink.com 1.10,2013-08-14 10:06:00,
2013-08-14 06:21:00,61.6,57.0,29.67,East,98,0.0,9.0,86,0.00,,,0.00,weatherlink.com 1.10,2013-08-14 10:21:00,
2013-08-14 06:36:00,61.0,57.0,29.68,WSW,251,2.0,9.0,85,0.00,,,0.00,weatherlink.com 1.10,2013-08-14 10:36:00,
2013-08-14 06:51:00,61.4,57.0,29.68,WSW,251,2.0,10.0,84,0.00,,,0.00,weatherlink.com 1.10,2013-08-14 10:51:00,
2013-08-14 07:06:00,62.1,57.0,29.68,WSW,239,3.0,9.0,82,0.00,,,0.00,weatherlink.com 1.10,2013-08-14 11:06:00,
2013-08-14 07:21:00,62.3,56.0,29.68,SW,223,3.0,7.0,81,0.00,,,0.00,weatherlink.com 1.10,2013-08-14 11:21:00,
2013-08-14 07:36:00,63.0,57.0,29.68,SW,221,2.0,7.0,80,0.00,,,0.00,weatherlink.com 1.10,2013-08-14 11:36:00,
2013-08-14 07:51:00,63.1,57.0,29.68,SSW,203,3.0,11.0,80,0.00,,,0.00,weatherlink.com 1.10,2013-08-14 11:51:00,
2013-08-14 08:06:00,63.4,56.0,29.68,WSW,257,13.0,14.0,77,0.00,,,0.00,weatherlink.com 1.10,2013-08-14 12:06:00,
2013-08-14 08:21:00,63.7,56.0,29.68,WNW,298,11.0,12.0,76,0.00,,,0.00,weatherlink.com 1.10,2013-08-14 12:21:00,
2013-08-14 08:36:00,64.2,56.0,29.69,SW,236,12.0,16.0,74,0.00,,,0.00,weatherlink.com 1.10,2013-08-14 12:36:00,
2013-08-14 08:51:00,64.7,56.0,29.68,WSW,251,9.0,14.0,73,0.00,,,0.00,weatherlink.com 1.10,2013-08-14 12:51:00,
2013-08-14 09:06:00,65.2,56.0,29.68,SSW,204,6.0,13.0,71,0.00,,,0.00,weatherlink.com 1.10,2013-08-14 13:06:00,
2013-08-14 09:22:00,65.2,56.0,29.68,WSW,250,7.0,14.0,71,0.00,,,0.00,weatherlink.com 1.10,2013-08-14 13:22:00,
2013-08-14 09:37:00,66.1,55.0,29.68,NNE,13,4.0,14.0,68,0.00,,,0.00,weatherlink.com 1.10,2013-08-14 13:37:00,
2013-08-14 09:52:00,65.7,55.0,29.68,NW,309,3.0,11.0,69,0.00,,,0.00,weatherlink.com 1.10,2013-08-14 13:52:00,
2013-08-14 10:07:00,66.0,54.0,29.68,WSW,240,9.0,13.0,66,0.00,,,0.00,weatherlink.com 1.10,2013-08-14 14:07:00,
2013-08-14 10:22:00,66.9,55.0,29.68,SSW,212,3.0,20.0,66,0.00,,,0.00,weatherlink.com 1.10,2013-08-14 14:22:00,
2013-08-14 10:37:00,67.7,55.0,29.68,North,355,6.0,14.0,64,0.00,,,0.00,weatherlink.com 1.10,2013-08-14 14:37:00,
2013-08-14 10:52:00,67.9,54.0,29.68,West,264,2.0,20.0,62,0.00,,,0.00,weatherlink.com 1.10,2013-08-14 14:52:00,
2013-08-14 11:07:00,68.4,55.0,29.68,WNW,298,8.0,18.0,62,0.00,,,0.00,weatherlink.com 1.10,2013-08-14 15:07:00,
2013-08-14 11:22:00,68.7,55.0,29.68,SSW,203,9.0,16.0,63,0.00,,,0.00,weatherlink.com 1.10,2013-08-14 15:22:00,
2013-08-14 11:37:00,68.5,53.0,29.68,West,273,13.0,16.0,59,0.00,,,0.00,weatherlink.com 1.10,2013-08-14 15:37:00,
2013-08-14 12:07:00,70.2,56.0,29.68,NW,326,6.0,17.0,60,0.00,,,0.00,weatherlink.com 1.10,2013-08-14 16:07:00,
2013-08-14 12:22:00,70.2,55.0,29.69,NNW,339,2.0,16.0,59,0.00,,,0.00,weatherlink.com 1.10,2013-08-14 16:22:00,
2013-08-14 12:37:00,69.7,56.0,29.69,NNW,342,3.0,15.0,61,0.00,,,0.00,weatherlink.com 1.10,2013-08-14 16:37:00,
2013-08-14 13:07:00,71.2,55.0,29.68,NW,324,3.0,16.0,56,0.00,,,0.00,weatherlink.com 1.10,2013-08-14 17:07:00,
2013-08-14 13:22:00,71.3,55.0,29.69,North,355,6.0,16.0,57,0.00,,,0.00,weatherlink.com 1.10,2013-08-14 17:22:00,
2013-08-14 13:37:00,72.7,55.0,29.69,South,186,7.0,14.0,54,0.00,,,0.00,weatherlink.com 1.10,2013-08-14 17:37:00,
2013-08-14 13:52:00,73.4,55.0,29.69,SW,224,1.0,19.0,52,0.00,,,0.00,weatherlink.com 1.10,2013-08-14 17:52:00,
2013-08-14 14:07:00,73.1,54.0,29.69,West,278,4.0,22.0,51,0.00,,,0.00,weatherlink.com 1.10,2013-08-14 18:07:00,
2013-08-14 14:22:00,73.8,55.0,29.69,WSW,256,3.0,19.0,52,0.00,,,0.00,weatherlink.com 1.10,2013-08-14 18:22:00,
2013-08-14 14:37:00,73.2,54.0,29.69,WSW,247,8.0,17.0,52,0.00,,,0.00,weatherlink.com 1.10,2013-08-14 18:37:00,
2013-08-14 14:52:00,73.6,55.0,29.69,West,264,3.0,17.0,52,0.00,,,0.00,weatherlink.com 1.10,2013-08-14 18:52:00,
2013-08-14 15:07:00,72.9,55.0,29.70,NW,321,21.0,21.0,53,0.00,,,0.00,weatherlink.com 1.10,2013-08-14 19:07:00,
2013-08-14 15:22:00,72.6,55.0,29.70,SW,232,9.0,14.0,54,0.00,,,0.00,weatherlink.com 1.10,2013-08-14 19:22:00,
2013-08-14 15:37:00,72.2,55.0,29.71,West,281,7.0,11.0,56,0.00,,,0.00,weatherlink.com 1.10,2013-08-14 19:37:00,
2013-08-14 15:52:00,73.2,55.0,29.71,North,349,2.0,16.0,54,0.00,,,0.00,weatherlink.com 1.10,2013-08-14 19:52:00,
2013-08-14 16:07:00,73.7,55.0,29.72,SW,217,10.0,18.0,53,0.00,,,0.00,weatherlink.com 1.10,2013-08-14 20:07:00,
2013-08-14 16:22:00,73.4,56.0,29.73,NW,312,2.0,14.0,54,0.00,,,0.00,weatherlink.com 1.10,2013-08-14 20:22:00,
2013-08-14 16:37:00,73.2,57.0,29.73,SSE,160,1.0,10.0,57,0.00,,,0.00,weatherlink.com 1.10,2013-08-14 20:37:00,
2013-08-14 16:52:00,73.0,56.0,29.74,West,276,5.0,19.0,56,0.00,,,0.00,weatherlink.com 1.10,2013-08-14 20:52:00,
2013-08-14 17:08:00,73.1,55.0,29.74,SW,229,3.0,11.0,54,0.00,,,0.00,weatherlink.com 1.10,2013-08-14 21:08:00,
2013-08-14 17:22:00,72.7,54.0,29.75,WNW,296,7.0,12.0,52,0.00,,,0.00,weatherlink.com 1.10,2013-08-14 21:22:00,
2013-08-14 17:37:00,72.6,55.0,29.75,NNW,333,5.0,8.0,54,0.00,,,0.00,weatherlink.com 1.10,2013-08-14 21:37:00,
2013-08-14 17:52:00,71.0,54.0,29.76,North,360,3.0,17.0,55,0.00,,,0.00,weatherlink.com 1.10,2013-08-14 21:52:00,
2013-08-14 18:07:00,71.0,55.0,29.77,SSE,147,2.0,12.0,57,0.00,,,0.00,weatherlink.com 1.10,2013-08-14 22:07:00,
2013-08-14 18:22:00,70.6,56.0,29.77,West,280,1.0,10.0,60,0.00,,,0.00,weatherlink.com 1.10,2013-08-14 22:22:00,
2013-08-14 18:37:00,69.7,56.0,29.78,NNW,346,6.0,9.0,62,0.00,,,0.00,weatherlink.com 1.10,2013-08-14 22:37:00,
2013-08-14 18:52:00,68.7,54.0,29.78,WNW,293,8.0,15.0,59,0.00,,,0.00,weatherlink.com 1.10,2013-08-14 22:52:00,
2013-08-14 19:07:00,68.1,54.0,29.79,NW,322,2.0,11.0,60,0.00,,,0.00,weatherlink.com 1.10,2013-08-14 23:07:00,
2013-08-14 19:23:00,67.8,54.0,29.80,NNW,340,4.0,10.0,61,0.00,,,0.00,weatherlink.com 1.10,2013-08-14 23:23:00,
2013-08-14 19:38:00,66.9,54.0,29.80,WNW,297,4.0,8.0,63,0.00,,,0.00,weatherlink.com 1.10,2013-08-14 23:38:00,
2013-08-14 19:53:00,66.4,53.0,29.81,SSW,210,6.0,8.0,63,0.00,,,0.00,weatherlink.com 1.10,2013-08-14 23:53:00,
2013-08-14 20:08:00,66.2,54.0,29.83,WSW,255,2.0,6.0,65,0.00,,,0.00,weatherlink.com 1.10,2013-08-15 00:08:00,
2013-08-14 20:23:00,65.0,55.0,29.84,SSW,206,1.0,7.0,70,0.00,,,0.00,weatherlink.com 1.10,2013-08-15 00:23:00,
2013-08-14 20:38:00,63.9,54.0,29.84,SW,235,2.0,5.0,70,0.00,,,0.00,weatherlink.com 1.10,2013-08-15 00:38:00,
2013-08-14 20:53:00,63.9,54.0,29.85,SSW,211,6.0,7.0,69,0.00,,,0.00,weatherlink.com 1.10,2013-08-15 00:53:00,
2013-08-14 21:08:00,63.5,53.0,29.87,SW,216,3.0,9.0,69,0.00,,,0.00,weatherlink.com 1.10,2013-08-15 01:08:00,
2013-08-14 21:23:00,62.9,53.0,29.87,West,280,4.0,8.0,71,0.00,,,0.00,weatherlink.com 1.10,2013-08-15 01:23:00,
2013-08-14 21:38:00,63.2,54.0,29.88,NNW,345,6.0,7.0,71,0.00,,,0.00,weatherlink.com 1.10,2013-08-15 01:38:00,
2013-08-14 21:53:00,62.8,54.0,29.88,NNE,23,4.0,6.0,73,0.00,,,0.00,weatherlink.com 1.10,2013-08-15 01:53:00,
2013-08-14 22:08:00,62.5,54.0,29.89,NNW,331,0.0,4.0,74,0.00,,,0.00,weatherlink.com 1.10,2013-08-15 02:08:00,
2013-08-14 22:23:00,62.1,54.0,29.89,North,349,3.0,7.0,75,0.00,,,0.00,weatherlink.com 1.10,2013-08-15 02:23:00,
2013-08-14 22:38:00,61.8,54.0,29.89,North,360,1.0,3.0,76,0.00,,,0.00,weatherlink.com 1.10,2013-08-15 02:38:00,
2013-08-14 22:53:00,60.9,54.0,29.90,NNW,343,0.0,3.0,78,0.00,,,0.00,weatherlink.com 1.10,2013-08-15 02:53:00,
2013-08-14 23:08:00,59.7,54.0,29.90,NNW,343,1.0,2.0,81,0.00,,,0.00,weatherlink.com 1.10,2013-08-15 03:08:00,
2013-08-14 23:23:00,58.2,54.0,29.91,NNW,343,2.0,2.0,85,0.00,,,0.00,weatherlink.com 1.10,2013-08-15 03:23:00,
2013-08-14 23:38:00,57.4,53.0,29.91,NW,309,2.0,3.0,86,0.00,,,0.00,weatherlink.com 1.10,2013-08-15 03:38:00,
2013-08-14 23:53:00,56.9,53.0,29.92,NW,308,0.0,2.0,88,0.00,,,0.00,weatherlink.com 1.10,2013-08-15 03:53:00,